• In Kazakhstan
  • List of Countries
  • For 7 days
  • Water Temperature
  • Weather Map
  • News
  • Weather Widgets
  • user-avatar
    Login

    Hourly Weather Abovyan

    Today, 18 August, Sunday

    Time Temperature Precipitation Wind Pressure Humidity
    00:00 +27°C° 0.1 mm 5 mps 670 mmHg 50%
    01:00 +26°C° 0 mm 4 mps 670 mmHg 51%
    02:00 +25°C° 0 mm 3 mps 670 mmHg 51%
    03:00 +24°C° 0 mm 2 mps 670 mmHg 51%
    04:00 +25°C° 0 mm 2 mps 670 mmHg 51%
    05:00 +25°C° 0 mm 2 mps 670 mmHg 51%
    06:00 +25°C° 0 mm 2 mps 670 mmHg 51%
    07:00 +27°C° 0 mm 2 mps 670 mmHg 46%
    08:00 +29°C° 0 mm 2 mps 671 mmHg 41%
    09:00 +30°C° 0 mm 2 mps 671 mmHg 36%
    10:00 +33°C° 0 mm 3 mps 671 mmHg 31%
    11:00 +35°C° 0 mm 3 mps 671 mmHg 27%
    12:00 +37°C° 0 mm 4 mps 671 mmHg 23%
    13:00 +38°C° 0 mm 4 mps 671 mmHg 22%
    14:00 +39°C° 0 mm 5 mps 671 mmHg 20%
    15:00 +40°C° 0 mm 6 mps 671 mmHg 18%
    16:00 +39°C° 0 mm 5 mps 671 mmHg 22%
    17:00 +36°C° 0 mm 5 mps 671 mmHg 27%
    18:00 +34°C° 0 mm 4 mps 671 mmHg 31%
    19:00 +33°C° 0 mm 4 mps 671 mmHg 32%
    20:00 +32°C° 0 mm 4 mps 672 mmHg 34%
    21:00 +30°C° 0 mm 4 mps 672 mmHg 35%
    22:00 +28°C° 0 mm 4 mps 672 mmHg 36%
    23:00 +27°C° 0 mm 3 mps 672 mmHg 37%

    Tomorrow, 19 August, Monday

    Time Temperature Precipitation Wind Pressure Humidity
    00:00 +26°C° 0 mm 3 mps 672 mmHg 38%
    01:00 +25°C° 0 mm 3 mps 672 mmHg 39%
    02:00 +24°C° 0 mm 3 mps 672 mmHg 39%
    03:00 +24°C° 0 mm 2 mps 672 mmHg 40%
    04:00 +24°C° 0 mm 2 mps 672 mmHg 40%
    05:00 +23°C° 0 mm 2 mps 672 mmHg 40%
    06:00 +23°C° 0 mm 2 mps 672 mmHg 40%
    07:00 +26°C° 0 mm 2 mps 673 mmHg 35%
    08:00 +29°C° 0 mm 2 mps 673 mmHg 30%
    09:00 +31°C° 0 mm 2 mps 674 mmHg 25%
    10:00 +34°C° 0 mm 2 mps 674 mmHg 22%
    11:00 +36°C° 0 mm 3 mps 674 mmHg 19%
    12:00 +38°C° 0 mm 3 mps 674 mmHg 16%
    13:00 +40°C° 0 mm 4 mps 674 mmHg 15%
    14:00 +41°C° 0 mm 4 mps 674 mmHg 14%
    15:00 +41°C° 0 mm 5 mps 674 mmHg 13%
    16:00 +40°C° 0 mm 4 mps 674 mmHg 17%
    17:00 +37°C° 0 mm 4 mps 674 mmHg 22%
    18:00 +36°C° 0 mm 4 mps 674 mmHg 26%
    19:00 +33°C° 0 mm 4 mps 674 mmHg 29%
    20:00 +30°C° 0 mm 4 mps 674 mmHg 32%
    21:00 +28°C° 0 mm 4 mps 674 mmHg 36%
    22:00 +27°C° 0 mm 4 mps 674 mmHg 35%
    23:00 +26°C° 0 mm 3 mps 674 mmHg 35%

    Day after tomorrow, 20 August, Tuesday

    Time Temperature Precipitation Wind Pressure Humidity
    00:00 +25°C° 0 mm 3 mps 674 mmHg 34%
    01:00 +24°C° 0 mm 3 mps 674 mmHg 34%
    02:00 +24°C° 0 mm 2 mps 674 mmHg 33%
    03:00 +23°C° 0 mm 2 mps 674 mmHg 33%
    04:00 +23°C° 0 mm 2 mps 674 mmHg 32%
    05:00 +23°C° 0 mm 2 mps 674 mmHg 32%
    06:00 +23°C° 0 mm 1 mps 675 mmHg 32%
    07:00 +26°C° 0 mm 1 mps 675 mmHg 28%
    08:00 +29°C° 0 mm 2 mps 676 mmHg 24%
    09:00 +31°C° 0 mm 2 mps 676 mmHg 20%
    10:00 +34°C° 0 mm 2 mps 676 mmHg 18%
    11:00 +36°C° 0 mm 2 mps 676 mmHg 16%
    12:00 +38°C° 0 mm 3 mps 676 mmHg 15%
    13:00 +38°C° 0 mm 3 mps 676 mmHg 14%
    14:00 +39°C° 0 mm 3 mps 676 mmHg 13%
    15:00 +41°C° 0 mm 4 mps 675 mmHg 13%
    16:00 +40°C° 0 mm 4 mps 675 mmHg 16%
    17:00 +37°C° 0 mm 5 mps 675 mmHg 20%
    18:00 +36°C° 0 mm 5 mps 674 mmHg 24%
    19:00 +34°C° 0 mm 5 mps 674 mmHg 26%
    20:00 +30°C° 0 mm 5 mps 674 mmHg 29%
    21:00 +28°C° 0 mm 4 mps 674 mmHg 31%
    22:00 +27°C° 0 mm 4 mps 674 mmHg 32%
    23:00 +26°C° 0 mm 3 mps 674 mmHg 33%

    21 August, Wednesday

    Time Temperature Precipitation Wind Pressure Humidity
    00:00 +24°C° 0 mm 2 mps 674 mmHg 34%
    01:00 +24°C° 0 mm 2 mps 674 mmHg 34%
    02:00 +23°C° 0 mm 2 mps 673 mmHg 34%
    03:00 +21°C° 0 mm 2 mps 673 mmHg 34%
    04:00 +21°C° 0 mm 2 mps 673 mmHg 34%
    05:00 +21°C° 0 mm 2 mps 673 mmHg 33%
    06:00 +22°C° 0 mm 1 mps 673 mmHg 32%
    07:00 +25°C° 0 mm 2 mps 674 mmHg 28%
    08:00 +28°C° 0 mm 2 mps 674 mmHg 24%
    09:00 +31°C° 0 mm 2 mps 675 mmHg 19%
    10:00 +34°C° 0 mm 2 mps 675 mmHg 18%
    11:00 +35°C° 0 mm 2 mps 675 mmHg 17%
    12:00 +37°C° 0 mm 3 mps 674 mmHg 16%
    13:00 +38°C° 0 mm 3 mps 674 mmHg 15%
    14:00 +39°C° 0 mm 3 mps 674 mmHg 15%
    15:00 +40°C° 0 mm 4 mps 674 mmHg 14%
    16:00 +38°C° 0 mm 4 mps 673 mmHg 18%
    17:00 +37°C° 0 mm 5 mps 673 mmHg 21%
    18:00 +35°C° 0 mm 5 mps 672 mmHg 25%
    19:00 +33°C° 0 mm 5 mps 673 mmHg 27%
    20:00 +30°C° 0 mm 5 mps 673 mmHg 30%
    21:00 +28°C° 0 mm 4 mps 673 mmHg 33%
    22:00 +26°C° 0 mm 4 mps 672 mmHg 34%
    23:00 +25°C° 0 mm 3 mps 672 mmHg 35%

    22 August, Thursday

    Time Temperature Precipitation Wind Pressure Humidity
    00:00 +24°C° 0 mm 2 mps 672 mmHg 36%
    01:00 +23°C° 0 mm 2 mps 672 mmHg 37%
    02:00 +23°C° 0 mm 2 mps 672 mmHg 38%
    03:00 +21°C° 0 mm 2 mps 671 mmHg 39%
    04:00 +21°C° 0 mm 2 mps 671 mmHg 38%
    05:00 +21°C° 0 mm 2 mps 672 mmHg 38%
    06:00 +22°C° 0 mm 1 mps 672 mmHg 37%
    07:00 +25°C° 0 mm 2 mps 672 mmHg 33%
    08:00 +28°C° 0 mm 2 mps 672 mmHg 28%
    09:00 +30°C° 0 mm 2 mps 673 mmHg 23%
    10:00 +33°C° 0 mm 3 mps 673 mmHg 20%
    11:00 +35°C° 0 mm 3 mps 673 mmHg 17%
    12:00 +37°C° 0 mm 4 mps 672 mmHg 15%
    13:00 +38°C° 0 mm 4 mps 672 mmHg 14%
    14:00 +39°C° 0 mm 5 mps 672 mmHg 14%
    15:00 +40°C° 0 mm 6 mps 671 mmHg 13%
    16:00 +39°C° 0 mm 6 mps 671 mmHg 17%
    17:00 +36°C° 0 mm 6 mps 671 mmHg 21%
    18:00 +35°C° 0 mm 6 mps 671 mmHg 24%
    19:00 +33°C° 0 mm 5 mps 671 mmHg 27%
    20:00 +29°C° 0 mm 5 mps 671 mmHg 29%
    21:00 +27°C° 0 mm 5 mps 671 mmHg 32%
    22:00 +26°C° 0 mm 4 mps 671 mmHg 33%
    23:00 +25°C° 0 mm 3 mps 671 mmHg 35%

    23 August, Friday

    Time Temperature Precipitation Wind Pressure Humidity
    00:00 +23°C° 0 mm 2 mps 671 mmHg 37%
    01:00 +23°C° 0 mm 2 mps 670 mmHg 37%
    02:00 +21°C° 0 mm 2 mps 670 mmHg 38%
    03:00 +20°C° 0 mm 2 mps 670 mmHg 39%
    04:00 +20°C° 0 mm 2 mps 670 mmHg 39%
    05:00 +21°C° 0 mm 1 mps 670 mmHg 38%
    06:00 +21°C° 0 mm 1 mps 671 mmHg 38%
    07:00 +24°C° 0 mm 2 mps 671 mmHg 32%
    08:00 +27°C° 0 mm 2 mps 671 mmHg 27%
    09:00 +30°C° 0 mm 2 mps 672 mmHg 21%
    10:00 +33°C° 0 mm 3 mps 672 mmHg 19%
    11:00 +34°C° 0 mm 3 mps 672 mmHg 16%
    12:00 +36°C° 0 mm 4 mps 672 mmHg 14%
    13:00 +37°C° 0 mm 4 mps 672 mmHg 13%
    14:00 +38°C° 0 mm 4 mps 671 mmHg 12%
    15:00 +40°C° 0 mm 4 mps 671 mmHg 11%
    16:00 +37°C° 0 mm 5 mps 671 mmHg 16%
    17:00 +35°C° 0 mm 6 mps 671 mmHg 21%
    18:00 +34°C° 0 mm 6 mps 670 mmHg 26%
    19:00 +30°C° 0 mm 5 mps 670 mmHg 30%
    20:00 +27°C° 0 mm 4 mps 671 mmHg 33%
    21:00 +25°C° 0 mm 3 mps 671 mmHg 37%
    22:00 +24°C° 0 mm 3 mps 671 mmHg 38%
    23:00 +24°C° 0 mm 2 mps 671 mmHg 39%
    Show more